[[{"header":{"parameterUnit":"m.s-1","parameterCategory":1,"la1":30.2991,"la2":30.254,"lo1":-89.0895,"lo2":-89.0444,"dy":0.0017,"dx":0.0017,"nx":28,"ny":28,"refTime":"2024-04-16T21:00:00:Z","depth":0,"parameterNumber":2,"parameterNumberName":"U-component_of_WINDS"},"data":[0,0,0,0,0,0,0,0,0,0,0,0,0,0,0,0,0,0,0,0,0,0,0,0,0,0,0,0,0,0,0,0,0,0,0,0,0,0,0,0,0,0,0,0,0,0,0,0,0,0,0,0,0,0,0,0,0,0,-3.3467,-3.3467,0,-3.3501,-3.3502,-3.3502,-3.3512,-3.3512,-3.3512,-3.3512,-3.3549,-3.355,-3.3551,0,0,0,0,0,0,0,0,0,0,0,0,0,-3.3412,-3.3413,-3.3467,-3.3467,-3.3467,-3.3501,-3.3502,-3.3502,-3.3512,-3.3512,-3.3512,-3.3512,-3.3549,-3.355,-3.3552,0,0,0,0,0,0,0,0,0,0,0,0,0,-3.344,-3.3413,-3.3467,-3.3477,-3.3478,-3.3501,-3.3502,-3.3502,-3.3512,-3.3512,-3.3512,-3.3512,-3.3548,-3.355,-3.3552,-3.3568,0,0,-3.3557,-3.3558,0,0,0,0,0,0,0,0,-3.3438,-3.3442,-3.3475,-3.3476,-3.3477,-3.3502,-3.3496,-3.3525,-3.3512,-3.3499,-3.3512,-3.3511,-3.3534,-3.3537,-3.3544,-3.357,-3.3572,-3.3557,-3.3558,-3.3559,-3.356,0,0,0,0,0,0,0,-3.3436,-3.3441,-3.348,-3.3475,-3.3477,-3.348,-3.3484,-3.3502,-3.3518,-3.35,-3.3501,-3.3505,-3.3535,-3.3542,-3.3545,-3.3572,-3.3557,-3.3559,-3.356,-3.3561,-3.3615,-3.3616,0,0,0,0,0,0,-3.3432,-3.3439,-3.3479,-3.3481,-3.3457,-3.3481,-3.3486,-3.3495,-3.3518,-3.3521,-3.3505,-3.3505,-3.3539,-3.3543,-3.3546,-3.3568,-3.3559,-3.3561,-3.3562,-3.3615,-3.3616,-3.3616,0,0,0,0,0,0,-3.3431,-3.3436,-3.3478,-3.346,-3.3466,-3.3483,-3.3493,-3.3495,-3.3503,-3.3521,-3.3525,-3.351,-3.3539,-3.3544,-3.3563,-3.3569,-3.3562,-3.3563,-3.3615,-3.3615,-3.3616,-3.361,0,0,0,0,0,0,-3.343,-3.3435,-3.3441,-3.346,-3.3467,-3.3493,-3.3493,-3.3496,-3.3506,-3.3506,-3.3527,-3.353,-3.3539,-3.356,-3.3565,-3.3572,-3.3565,-3.3614,-3.3615,-3.3616,-3.361,-3.3611,-3.3611,0,0,0,0,0,-3.3428,-3.3438,-3.3441,-3.3446,-3.3474,-3.3493,-3.3497,-3.3508,-3.3506,-3.3513,-3.3525,-3.3529,-3.3568,-3.3562,-3.3567,-3.3575,-3.3614,-3.3615,-3.3616,-3.361,-3.3611,-3.3611,0,0,0,0,0,0,-3.3419,-3.3441,-3.3444,-3.3461,-3.3475,-3.3495,-3.3503,-3.3508,-3.3523,-3.3523,-3.3536,-3.3541,-3.3559,-3.3569,-3.3562,-3.3593,-3.3591,-3.3593,-3.3585,-3.3586,-3.3587,-3.3584,-3.3566,0,0,0,0,0,-3.3419,-3.3432,-3.3451,-3.3464,-3.3471,-3.3486,-3.3495,-3.3502,-3.3517,-3.3523,-3.3536,-3.3552,-3.3568,-3.3578,-3.3593,-3.3612,-3.3617,-3.362,-3.3621,-3.3621,-3.3622,-3.3634,-3.3636,-3.3619,-3.3619,-3.3619,0,0,-3.342,-3.3433,-3.3441,-3.3463,-3.3475,-3.3489,-3.3491,-3.3505,-3.3516,-3.3525,-3.3544,-3.3555,-3.3573,-3.3592,-3.3602,-3.3601,-3.3629,-3.3622,-3.3623,-3.3624,-3.3635,-3.3637,-3.3638,-3.362,-3.3619,-3.3619,0,0,-3.3428,-3.3439,-3.3452,-3.3463,-3.3481,-3.3491,-3.3494,-3.3513,-3.3521,-3.354,-3.3547,-3.3561,-3.3588,-3.3601,-3.3611,-3.3626,-3.363,-3.3631,-3.3633,-3.3645,-3.3646,-3.3647,-3.3653,-3.3655,-3.3632,-3.3632,-3.3632,0,-3.3426,-3.3446,-3.3458,-3.3472,-3.3482,-3.3491,-3.3505,-3.3516,-3.3538,-3.3545,-3.3545,-3.358,-3.3592,-3.3615,-3.3619,-3.3627,-3.3632,-3.3628,-3.3645,-3.3646,-3.3648,-3.3653,-3.3655,-3.3632,-3.3632,-3.3632,-3.3632,0,-3.3444,-3.3458,-3.3467,-3.3487,-3.3498,-3.3512,-3.3527,-3.3537,-3.3544,-3.3554,-3.3575,-3.3591,-3.361,-3.3616,-3.3623,-3.3641,-3.364,-3.3642,-3.3641,-3.3649,-3.3654,-3.3657,-3.3632,-3.3632,-3.3632,-3.3632,0,0,-3.3446,-3.3473,-3.3476,-3.3486,-3.3507,-3.3519,-3.3534,-3.3553,-3.3562,-3.3577,-3.3591,-3.3614,-3.3617,-3.3628,-3.3637,-3.3647,-3.3658,-3.3648,-3.3649,-3.3649,-3.368,-3.3677,-3.368,-3.3662,-3.3663,-3.3663,-3.3678,0,-3.3456,-3.3482,-3.3494,-3.3515,-3.3529,-3.3539,-3.3553,-3.3567,-3.3578,-3.3593,-3.3605,-3.3621,-3.3623,-3.363,-3.3641,-3.3655,-3.3665,-3.3654,-3.3676,-3.3676,-3.367,-3.3682,-3.368,-3.3693,-3.368,-3.3681,-3.3681,0,-3.3471,-3.3486,-3.3509,-3.3529,-3.3536,-3.3547,-3.3566,-3.3579,-3.3597,-3.3605,-3.3618,-3.3627,-3.3644,-3.3643,-3.3668,-3.366,-3.367,-3.3679,-3.3679,-3.3681,-3.3678,-3.3684,-3.3698,-3.3699,-3.3684,-3.3684,-3.3684,0,-3.347,-3.3497,-3.3514,-3.3522,-3.3546,-3.3554,-3.3565,-3.3582,-3.3593,-3.361,-3.3618,-3.3637,-3.3647,-3.3662,-3.3676,-3.3674,-3.37,-3.37,-3.3708,-3.3707,-3.3712,-3.3711,-3.3726,-3.3719,-3.3719,-3.3719,-3.3719,0,-3.348,-3.3494,-3.3514,-3.3524,-3.354,-3.3554,-3.357,-3.3582,-3.3597,-3.3611,-3.3622,-3.3635,-3.3653,-3.3668,-3.368,-3.3699,-3.3704,-3.3711,-3.3714,-3.371,-3.3709,-3.3716,-3.3715,-3.372,-3.372,-3.3719,-3.3719,0,-3.3482,-3.3495,-3.3515,-3.3536,-3.3542,-3.3553,-3.3572,-3.3583,-3.3595,-3.3613,-3.3618,-3.3637,-3.3656,-3.3672,-3.3697,-3.3705,-3.3725,-3.3728,-3.3718,-3.372,-3.3727,-3.3726,-3.3746,-3.375,-3.3741,-3.3741,-3.3741,0,-3.3487,-3.3497,-3.352,-3.353,-3.354,-3.3555,-3.3567,-3.3581,-3.3593,-3.3615,-3.3624,-3.3644,-3.366,-3.3691,-3.3707,-3.3727,-3.3731,-3.3737,-3.3734,-3.373,-3.3731,-3.373,-3.3731,-3.3737,-3.3737,-3.3737,-3.3737,0,-3.3494,-3.3501,-3.3516,-3.3534,-3.3547,-3.3562,-3.3578,-3.3586,-3.3604,-3.3616,-3.3635,-3.3648,-3.3674,-3.3694,-3.3716,-3.3729,-3.3736,-3.3738,-3.3741,-3.3736,-3.373,-3.3734,-3.3719,-3.3737,-3.3737,-3.3737,-3.3737,-3.3737,-3.3498,-3.3508,-3.3526,-3.3543,-3.3556,-3.357,-3.3582,-3.3596,-3.3612,-3.3633,-3.3642,-3.3662,-3.3681,-3.3711,-3.3724,-3.3741,-3.3741,-3.3746,-3.3747,-3.3747,-3.3747,-3.3728,-3.3745,-3.3745,-3.3745,-3.3745,-3.3745,0,-3.3506,-3.3518,-3.3534,-3.3555,-3.3568,-3.3574,-3.3592,-3.3603,-3.3621,-3.3638,-3.3654,-3.3677,-3.3697,-3.3715,-3.3736,-3.3746,-3.375,-3.3751,-3.375,-3.3753,-3.3745,-3.374,-3.3748,-3.3748,-3.3748,-3.3748,-3.3748,-3.3748,-3.3512,-3.3529,-3.3538,-3.3563,-3.3576,-3.3594,-3.3604,-3.3618,-3.3632,-3.3657,-3.3673,-3.3685,-3.3703,-3.3726,-3.3745,-3.375,-3.3757,-3.3757,-3.3763,-3.3754,-3.3754,-3.3753,-3.3749,-3.3759,-3.3759,-3.377,-3.3771,-3.3771]},{"header":{"parameterUnit":"m.s-1","parameterCategory":1,"la1":30.2991,"la2":30.254,"lo1":-89.0895,"lo2":-89.0444,"dy":0.0017,"dx":0.0017,"nx":28,"ny":28,"refTime":"2024-04-16T21:00:00:Z","depth":0,"parameterNumber":3,"parameterNumberName":"V-component_of_WINDS"},"data":[0,0,0,0,0,0,0,0,0,0,0,0,0,0,0,0,0,0,0,0,0,0,0,0,0,0,0,0,0,0,0,0,0,0,0,0,0,0,0,0,0,0,0,0,0,0,0,0,0,0,0,0,0,0,0,0,0,0,5.2297,5.2296,0,5.2237,5.2237,5.2236,5.2253,5.2255,5.2256,5.2257,5.2189,5.2186,5.2183,0,0,0,0,0,0,0,0,0,0,0,0,0,5.2422,5.2419,5.2297,5.2296,5.2295,5.2237,5.2237,5.2236,5.2253,5.2255,5.2256,5.2258,5.219,5.2187,5.2183,0,0,0,0,0,0,0,0,0,0,0,0,0,5.2365,5.2419,5.2297,5.2297,5.2297,5.2238,5.2237,5.2236,5.2253,5.2255,5.2257,5.2258,5.2191,5.2187,5.2182,5.2117,0,0,5.2169,5.2167,0,0,0,0,0,0,0,0,5.2368,5.2361,5.2298,5.2297,5.2297,5.2255,5.2256,5.2196,5.2252,5.2269,5.2257,5.2259,5.2209,5.2203,5.2188,5.2114,5.2111,5.2168,5.2166,5.2164,5.2163,0,0,0,0,0,0,0,5.2372,5.2363,5.2273,5.2297,5.2296,5.2299,5.2293,5.2244,5.2229,5.2268,5.2269,5.2262,5.2209,5.2192,5.2186,5.211,5.2169,5.2165,5.2162,5.216,5.1983,5.1981,0,0,0,0,0,0,5.2377,5.2366,5.2275,5.2271,5.2338,5.2295,5.2289,5.2266,5.223,5.2226,5.2261,5.2263,5.2199,5.2191,5.2184,5.2107,5.2164,5.216,5.2157,5.1985,5.1983,5.1981,0,0,0,0,0,0,5.238,5.2369,5.2277,5.2319,5.2308,5.2291,5.2266,5.2264,5.2247,5.2224,5.2221,5.2247,5.22,5.219,5.2135,5.2105,5.2158,5.2154,5.1988,5.1985,5.1982,5.1953,0,0,0,0,0,0,5.2384,5.237,5.2346,5.2319,5.2306,5.2231,5.2264,5.2262,5.224,5.2243,5.221,5.2206,5.2201,5.2142,5.2131,5.21,5.215,5.199,5.1986,5.1983,5.1956,5.1949,5.1943,0,0,0,0,0,5.2388,5.2338,5.2344,5.2333,5.2275,5.2229,5.2221,5.2218,5.2238,5.2213,5.2199,5.2207,5.211,5.2136,5.2123,5.2091,5.1992,5.1987,5.1983,5.1959,5.195,5.1943,0,0,0,0,0,0,5.2358,5.2334,5.2341,5.2281,5.2257,5.2232,5.22,5.2208,5.2176,5.218,5.2174,5.2167,5.2111,5.2095,5.2124,5.2028,5.2054,5.2047,5.204,5.2032,5.2025,5.203,5.2146,0,0,0,0,0,5.2345,5.2312,5.2291,5.224,5.2228,5.2217,5.2196,5.2196,5.217,5.2159,5.2141,5.2114,5.2078,5.2054,5.2019,5.1954,5.1948,5.1926,5.1919,5.1914,5.1908,5.1875,5.1866,5.1966,5.1966,5.1966,0,0,5.2317,5.2299,5.2278,5.2234,5.2215,5.218,5.2208,5.2168,5.2141,5.2152,5.2101,5.2086,5.2056,5.1997,5.1969,5.1982,5.1879,5.1908,5.1904,5.1901,5.187,5.186,5.1852,5.1963,5.1963,5.1964,0,0,5.2247,5.2231,5.2188,5.217,5.2143,5.2136,5.2126,5.21,5.2092,5.2041,5.205,5.2017,5.1954,5.1933,5.1914,5.1841,5.1848,5.183,5.1795,5.1763,5.1755,5.1748,5.1724,5.1715,5.1823,5.1823,5.1823,0,5.2215,5.2163,5.2164,5.2125,5.2106,5.2118,5.2074,5.2056,5.2018,5.2004,5.2019,5.1943,5.1923,5.1861,5.1844,5.1827,5.1815,5.1833,5.1756,5.1749,5.1743,5.1719,5.171,5.1821,5.1822,5.1822,5.1822,0,5.2126,5.209,5.2058,5.2026,5.2003,5.1961,5.1955,5.1931,5.1934,5.1925,5.1874,5.1851,5.1813,5.1798,5.1798,5.1736,5.1745,5.1758,5.1785,5.1731,5.171,5.17,5.1819,5.1819,5.182,5.182,0,0,5.2034,5.2005,5.1993,5.198,5.1953,5.1925,5.1884,5.1851,5.1831,5.1805,5.1772,5.172,5.1734,5.1712,5.171,5.1682,5.1629,5.1699,5.1698,5.1688,5.1561,5.1552,5.1542,5.1634,5.1632,5.163,5.1564,0,5.1964,5.1896,5.1896,5.1832,5.18,5.1813,5.1778,5.1757,5.1749,5.1719,5.1709,5.1674,5.1693,5.1681,5.1654,5.1641,5.1603,5.1645,5.1602,5.16,5.161,5.153,5.1519,5.1458,5.1555,5.1554,5.1553,0,5.1872,5.1847,5.1782,5.1763,5.1749,5.1718,5.1689,5.166,5.1637,5.1633,5.1612,5.1615,5.1574,5.1602,5.1546,5.1575,5.1557,5.1548,5.1546,5.1542,5.1574,5.1525,5.1438,5.1429,5.1539,5.154,5.1541,0,5.1814,5.1764,5.1719,5.1707,5.1683,5.1661,5.165,5.1629,5.161,5.1583,5.1571,5.1539,5.1522,5.1497,5.1492,5.1512,5.1435,5.1462,5.1431,5.1431,5.1414,5.1415,5.1324,5.1401,5.1401,5.1401,5.1401,0,5.1736,5.1695,5.1693,5.1666,5.1621,5.1622,5.1578,5.1568,5.155,5.152,5.1528,5.15,5.1494,5.1465,5.146,5.1415,5.1406,5.1402,5.1401,5.1402,5.1403,5.139,5.1395,5.1399,5.1399,5.14,5.14,0,5.1663,5.166,5.1613,5.1596,5.159,5.1558,5.1543,5.1517,5.1511,5.1473,5.1464,5.1453,5.1419,5.1412,5.137,5.1368,5.1315,5.1317,5.1323,5.1324,5.1293,5.1297,5.1192,5.1179,5.1263,5.1262,5.1261,0,5.1614,5.1584,5.1565,5.1548,5.1536,5.1507,5.1489,5.1489,5.1469,5.1443,5.1419,5.1387,5.1361,5.1306,5.1293,5.1262,5.1265,5.1231,5.126,5.1263,5.1266,5.1269,5.1267,5.1225,5.1224,5.1223,5.1223,0,5.1528,5.1529,5.1503,5.1478,5.1457,5.1436,5.1416,5.1401,5.1398,5.1376,5.1343,5.1323,5.1283,5.1251,5.1221,5.1207,5.1215,5.1214,5.1205,5.1205,5.1211,5.121,5.1309,5.1216,5.1216,5.1217,5.1217,5.1218,5.1467,5.1442,5.1426,5.1398,5.1384,5.1366,5.1342,5.1334,5.1308,5.1277,5.1278,5.1243,5.1222,5.1183,5.1169,5.114,5.1151,5.1137,5.1134,5.1131,5.113,5.1215,5.1134,5.1134,5.1134,5.1135,5.1135,0,5.1383,5.1374,5.1348,5.1323,5.1301,5.1313,5.1292,5.1273,5.1242,5.1224,5.12,5.1163,5.1133,5.112,5.109,5.107,5.1072,5.1062,5.1064,5.1061,5.1121,5.1132,5.106,5.106,5.106,5.106,5.106,5.106,5.1336,5.1296,5.1295,5.1249,5.1239,5.1207,5.1195,5.1179,5.1165,5.1124,5.1101,5.1093,5.1077,5.1047,5.102,5.1017,5.1006,5.0994,5.0992,5.1049,5.1056,5.1063,5.1074,5.0991,5.0991,5.0935,5.0935,5.0934]}]]